Highgate, VT

11:42 AM EDT on March 27, 2017 (GMT -0400)
Franklin County State

Weather History for KFSO - June, 2013

Change the Weather History Date:

Sunday, June 30, 2013

  Actual Average (KPBG) Record (KPBG)
Temperature  
Mean Temperature 70 °F -  
Max Temperature 81 °F 77 °F 96 °F (1964)
Min Temperature 59 °F 58 °F 48 °F (1983)
Cooling Degree Days 5    
Growing Degree Days 20 (Base 50)    
Moisture  
Dew Point 61 °F    
Average Humidity 73    
Maximum Humidity 93    
Minimum Humidity 50    
Precipitation  
Precipitation 0.00 in - - ()
Sea Level Pressure  
Sea Level Pressure 29.81 in    
Wind  
Wind Speed 1 mph (WNW)    
Max Wind Speed 7 mph    
Max Gust Speed -    
Visibility 9 miles    
Events Fog    
Averages and records for this station are not official NWS values.
T = Trace of Precipitation, MM = Missing Value Source: NWS Daily Summary

Daily Weather History Graph

Daily Weather History Graph

Search for Another Location

Airport or City:

Trip Planner

Search our weather history database for the weather conditions in past years. The results will help you decide how hot, cold, wet, or windy it might be!

Date:

Astronomy

Jun. 30, 2013 Rise Set
Actual Time 5:09 AM EDT 8:42 PM EDT
Civil Twilight 4:32 AM EDT 9:19 PM EDT
Nautical Twilight 3:43 AM EDT 10:08 PM EDT
Astronomical Twilight 2:38 AM EDT 11:12 PM EDT
Moon 12:20 AM EDT (6/30) 1:43 PM EDT (6/30)
Length of Visible Light 16h 47m
Length of Day
15h 33m
Last Quarter, 45% of the Moon is Illuminated
Jun 30
Last Quarter
Jul 8
New
Jul 15
First Quarter
Jul 22
Full
Jul 29
Last Quarter

Hourly Weather History & Observations

Time (EDT) Temp. Heat Index Dew Point Humidity Pressure Visibility Wind Dir Wind Speed Gust Speed Precip Events Conditions
12:15 AM 64.4 °F - 61.9 °F 92% 29.66 in 7.0 mi Calm Calm - N/A   Scattered Clouds
12:35 AM 65.7 °F - 63.0 °F 91% 29.66 in 7.0 mi Calm Calm - N/A   Scattered Clouds
12:55 AM 64.8 °F - 62.2 °F 92% 29.67 in 7.0 mi Calm Calm - N/A   Clear
1:15 AM 64.4 °F - 61.9 °F 92% 29.67 in 7.0 mi Calm Calm - N/A   Scattered Clouds
1:35 AM 66.0 °F - 63.5 °F 92% 29.68 in 5.0 mi Calm Calm - N/A   Overcast
1:55 AM 67.1 °F - 64.4 °F 91% 29.68 in 5.0 mi Calm Calm - N/A   Overcast
2:15 AM 64.4 °F - 61.9 °F 92% 29.69 in 10.0 mi WNW 3.5 mph - N/A   Overcast
2:35 AM 64.4 °F - 61.9 °F 92% 29.69 in 10.0 mi Calm Calm - N/A   Overcast
2:55 AM 64.2 °F - 61.5 °F 91% 29.69 in 10.0 mi Calm Calm - N/A   Overcast
3:15 AM 62.6 °F - 59.9 °F 91% 29.70 in 10.0 mi Calm Calm - N/A   Scattered Clouds
3:35 AM 61.9 °F - 59.4 °F 91% 29.70 in 2.5 mi Calm Calm - N/A   Clear
3:55 AM 61.9 °F - 59.5 °F 92% 29.71 in 5.0 mi Calm Calm - N/A   Mostly Cloudy
4:15 AM 61.7 °F - 59.4 °F 92% 29.71 in 7.0 mi Calm Calm - N/A   Overcast
4:35 AM 60.8 °F - 58.5 °F 92% 29.72 in 1.8 mi Calm Calm - N/A   Scattered Clouds
4:55 AM 60.8 °F - 58.3 °F 91% 29.73 in 0.8 mi Calm Calm - N/A   Mist
5:15 AM 59.5 °F - 57.2 °F 92% 29.73 in 0.2 mi Calm Calm - N/A Fog Fog
5:35 AM 59.4 °F - 57.2 °F 93% 29.74 in 0.2 mi Calm Calm - N/A Fog Fog
5:55 AM 59.4 °F - 57.2 °F 93% 29.75 in 7.0 mi Calm Calm - N/A   Mostly Cloudy
6:15 AM 60.1 °F - 57.7 °F 92% 29.76 in 10.0 mi Calm Calm - N/A   Scattered Clouds
6:35 AM 61.7 °F - 59.4 °F 92% 29.76 in 7.0 mi Calm Calm - N/A   Clear
6:55 AM 62.4 °F - 60.1 °F 92% 29.77 in 5.0 mi Calm Calm - N/A   Scattered Clouds
7:15 AM 65.8 °F - 63.7 °F 93% 29.78 in 7.0 mi Calm Calm - N/A   Scattered Clouds
7:35 AM 67.1 °F - 64.4 °F 91% 29.79 in 10.0 mi Calm Calm - N/A   Overcast
7:55 AM 67.1 °F - 64.0 °F 90% 29.79 in 10.0 mi SSW 3.5 mph - N/A   Mostly Cloudy
8:15 AM 69.4 °F - 65.1 °F 86% 29.80 in 10.0 mi West 4.6 mph - N/A   Mostly Cloudy
8:35 AM 68.4 °F - 63.5 °F 84% 29.81 in 10.0 mi Calm Calm - N/A   Overcast
8:55 AM 69.4 °F - 63.3 °F 81% 29.81 in 10.0 mi Calm Calm - N/A   Overcast
9:15 AM 69.4 °F - 61.5 °F 76% 29.81 in 10.0 mi Calm Calm - N/A   Overcast
9:35 AM 70.3 °F - 61.3 °F 73% 29.82 in 10.0 mi Calm Calm - N/A   Scattered Clouds
9:55 AM 73.9 °F - 62.8 °F 68% 29.82 in 10.0 mi Calm Calm - N/A   Scattered Clouds
10:15 AM 72.3 °F - 61.2 °F 68% 29.83 in 10.0 mi SW 4.6 mph - N/A   Scattered Clouds
10:35 AM 74.5 °F - 61.5 °F 64% 29.83 in 10.0 mi West 3.5 mph - N/A   Mostly Cloudy
10:55 AM 74.5 °F - 62.6 °F 66% 29.83 in 10.0 mi Calm Calm - N/A   Mostly Cloudy
11:15 AM 74.5 °F - 61.7 °F 64% 29.83 in 10.0 mi SSW 4.6 mph - N/A   Mostly Cloudy
11:35 AM 74.5 °F - 61.9 °F 65% 29.84 in 10.0 mi SW 3.5 mph - N/A   Overcast
11:55 AM 73.9 °F - 63.7 °F 70% 29.84 in 10.0 mi Calm Calm - N/A   Overcast
12:15 PM 74.5 °F - 62.4 °F 66% 29.84 in 10.0 mi West 4.6 mph - N/A   Overcast
12:35 PM 77.0 °F - 61.0 °F 58% 29.83 in 10.0 mi Calm Calm - N/A   Mostly Cloudy
12:55 PM 77.0 °F - 59.9 °F 55% 29.83 in 10.0 mi WSW 4.6 mph - N/A   Overcast
1:15 PM 77.0 °F - 61.0 °F 58% 29.84 in 10.0 mi SW 3.5 mph - N/A   Overcast
1:35 PM 77.0 °F - 60.8 °F 57% 29.83 in 10.0 mi West 3.5 mph - N/A   Mostly Cloudy
1:55 PM 79.2 °F - 61.5 °F 55% 29.83 in 10.0 mi SSW 4.6 mph - N/A   Scattered Clouds
2:15 PM 79.7 °F - 60.4 °F 52% 29.84 in 10.0 mi West 3.5 mph - N/A   Mostly Cloudy
2:35 PM 79.7 °F - 59.9 °F 51% 29.84 in 10.0 mi West 4.6 mph - N/A   Scattered Clouds
2:55 PM 80.4 °F 81.2 °F 60.1 °F 50% 29.84 in 10.0 mi NNW 3.5 mph - N/A   Clear
3:15 PM 80.8 °F 81.5 °F 60.4 °F 50% 29.83 in 10.0 mi WNW 3.5 mph - N/A   Clear
3:35 PM 81.3 °F 82.1 °F 61.2 °F 50% 29.83 in 10.0 mi SSW 3.5 mph - N/A   Clear
3:55 PM 79.9 °F - 60.8 °F 52% 29.83 in 10.0 mi Calm Calm - N/A   Scattered Clouds
4:15 PM 77.0 °F - 61.7 °F 59% 29.83 in 10.0 mi North 3.5 mph - N/A   Mostly Cloudy
4:35 PM 77.0 °F - 61.2 °F 58% 29.84 in 10.0 mi Calm Calm - N/A   Mostly Cloudy
4:55 PM 79.5 °F - 62.8 °F 56% 29.84 in 10.0 mi North 5.8 mph - N/A   Mostly Cloudy
5:15 PM 79.7 °F - 61.3 °F 53% 29.84 in 10.0 mi North 6.9 mph - N/A   Scattered Clouds
5:35 PM 79.7 °F - 61.3 °F 53% 29.84 in 10.0 mi Calm Calm - N/A   Clear
5:55 PM 79.7 °F - 61.0 °F 53% 29.85 in 10.0 mi North 3.5 mph - N/A   Clear
6:15 PM 79.7 °F - 60.8 °F 52% 29.85 in 10.0 mi NNW 3.5 mph - N/A   Clear
6:35 PM 79.7 °F - 61.7 °F 54% 29.86 in 10.0 mi North 3.5 mph - N/A   Clear
6:55 PM 77.2 °F - 59.2 °F 54% 29.86 in 10.0 mi North 3.5 mph - N/A   Scattered Clouds
7:15 PM 77.0 °F - 61.3 °F 58% 29.86 in 10.0 mi North 4.6 mph - N/A   Clear
7:35 PM 77.0 °F - 61.3 °F 58% 29.87 in 7.0 mi North 4.6 mph - N/A   Clear
7:55 PM 74.5 °F - 59.9 °F 60% 29.88 in 10.0 mi North 4.6 mph - N/A   Clear
8:15 PM 74.5 °F - 61.2 °F 63% 29.88 in 10.0 mi North 3.5 mph - N/A   Clear
8:35 PM 74.5 °F - 62.2 °F 66% 29.89 in 10.0 mi NNW 3.5 mph - N/A   Clear
8:55 PM 71.6 °F - 60.6 °F 68% 29.89 in 10.0 mi Calm Calm - N/A   Clear
9:15 PM 69.4 °F - 59.9 °F 72% 29.90 in 10.0 mi Calm Calm - N/A   Clear
9:35 PM 69.4 °F - 60.6 °F 73% 29.91 in 10.0 mi Calm Calm - N/A   Clear
9:55 PM 69.4 °F - 61.0 °F 74% 29.91 in 10.0 mi Calm Calm - N/A   Scattered Clouds
10:15 PM 69.4 °F - 60.3 °F 73% 29.91 in 10.0 mi Calm Calm - N/A   Clear
10:35 PM 69.4 °F - 60.3 °F 73% 29.91 in 10.0 mi Calm Calm - N/A   Clear
10:55 PM 69.4 °F - 59.9 °F 72% 29.92 in 10.0 mi Calm Calm - N/A   Clear
11:15 PM 68.9 °F - 62.6 °F 80% 29.93 in 10.0 mi Calm Calm - N/A   Scattered Clouds
11:35 PM 67.1 °F - 61.9 °F 83% 29.93 in 10.0 mi Calm Calm - N/A   Mostly Cloudy
11:55 PM 67.1 °F - 62.6 °F 85% 29.94 in 10.0 mi Calm Calm - N/A   Overcast